This is the latest recevied weather packets stored in our database for station/object PY5KT-13. If no packets are shown the sender has not sent any weather packets the latest 10 day(s).
| Time | Temp. | Humidity | Pressure | Rain* | Wind** | Luminosity | Snow |
|---|---|---|---|---|---|---|---|
| 1777996549 | 28.89° C | 48% | 1023.3 hPa | 0 mm | - | 572 W/m² | - |
| 1777996247 | 27.78° C | 51% | 1023.4 hPa | 0 mm | - | 589 W/m² | - |
| 1777995945 | 28.89° C | 48% | 1023.5 hPa | 0 mm | - | 590 W/m² | - |
| 1777995643 | 28.89° C | 48% | 1023.5 hPa | 0 mm | - | 593 W/m² | - |
| 1777995341 | 28.33° C | 48% | 1023.5 hPa | 0 mm | - | 580 W/m² | - |
| 1777995039 | 27.78° C | 49% | 1023.6 hPa | 0 mm | - | 577 W/m² | - |
| 1777994737 | 28.89° C | 48% | 1023.6 hPa | 0 mm | - | 509 W/m² | - |
| 1777994436 | 28.33° C | 52% | 1023.7 hPa | 0 mm | - | 589 W/m² | - |
| 1777994134 | 28.89° C | 52% | 1023.7 hPa | 0 mm | - | 584 W/m² | - |
| 1777993833 | 27.78° C | 57% | 1023.7 hPa | 0 mm | - | 598 W/m² | - |
| 1777993531 | 27.78° C | 56% | 1023.8 hPa | 0 mm | - | 107 W/m² | - |
| 1777993229 | 26.67° C | 59% | 1023.9 hPa | 0 mm | - | 484 W/m² | - |
| 1777992928 | 27.78° C | 55% | 1023.9 hPa | 0 mm | - | 115 W/m² | - |
| 1777992626 | 27.22° C | 58% | 1024 hPa | 0 mm | - | 445 W/m² | - |
| 1777992325 | 27.78° C | 56% | 1024 hPa | 0 mm | - | 501 W/m² | - |
| 1777992023 | 27.78° C | 57% | 1024.1 hPa | 0 mm | - | 557 W/m² | - |
| 1777991722 | 27.78° C | 58% | 1024.1 hPa | 0 mm | - | 474 W/m² | - |
| 1777991419 | 26.67° C | 60% | 1024.2 hPa | 0 mm | - | 525 W/m² | - |
| 1777991118 | 27.78° C | 58% | 1024.2 hPa | 0 mm | - | 513 W/m² | - |
| 1777990816 | 26.67° C | 60% | 1024.3 hPa | 0 mm | - | 527 W/m² | - |
| 1777990514 | 26.67° C | 62% | 1024.3 hPa | 0 mm | - | 396 W/m² | - |
| 1777989910 | 26.11° C | 63% | 1024.3 hPa | 0 mm | - | 499 W/m² | - |
| 1777989608 | 26.11° C | 64% | 1024.4 hPa | 0 mm | - | 479 W/m² | - |
| 1777989306 | 26.11° C | 63% | 1024.4 hPa | 0 mm | - | 414 W/m² | - |
| 1777989004 | 25.56° C | 66% | 1024.4 hPa | 0 mm | - | 519 W/m² | - |
* Rain latest hour (hover to see other rain measurements)
** Current wind speed in m/s (hover to see current wind gust speed)